Weather History for Marathon, FL

Change the Weather History Date:

Friday, April 26, 2013

  Actual Average Record
Temperature  
Mean Temperature 81 °F 78 °F  
Max Temperature 86 °F 84 °F 89 °F (1997)
Min Temperature 76 °F 73 °F 69 °F (2003)
Degree Days  
Heating Degree Days 0 0  
Month to date heating degree days 0 0  
Since 1 July heating degree days 36 81  
Cooling Degree Days 16 13  
Month to date cooling degree days 441 315  
Year to date cooling degree days 1229 980  
Growing Degree Days 30 (Base 50)    
Moisture  
Dew Point 60 °F    
Average Humidity 52    
Maximum Humidity 60    
Minimum Humidity 44    
Precipitation  
Precipitation 0.00 in 0.08 in 1.17 in (2003)
Month to date precipitation 3.68 2.08  
Year to date precipitation 7.45 8.29  
Snow  
Snow 0.00 in - - ()
Month to date snowfall 0.0  
Since 1 July snowfall 0.0  
Snow Depth 0.00 in    
Sea Level Pressure  
Sea Level Pressure 30.16 in    
Wind  
Wind Speed 10 mph (ENE)    
Max Wind Speed 18 mph    
Max Gust Speed 24 mph    
Visibility 10 miles    
Events      
T = Trace of Precipitation, MM = Missing Value Source: NWS Daily Summary

Daily Weather History Graph

Daily Weather History Graph

Search for Another Location

Airport:

Trip Planner

Search our weather history database for the weather conditions in past years. The results will help you decide how hot, cold, wet, or windy it might be!

Date:

Astronomy

Apr. 26, 2013 Rise Set
Actual Time 6:52 AM EDT 7:51 PM EDT
Civil Twilight 6:28 AM EDT 8:15 PM EDT
Nautical Twilight 6:00 AM EDT 8:43 PM EDT
Astronomical Twilight 5:32 AM EDT 9:12 PM EDT
Moon 9:04 PM EDT (4/26) 7:24 AM EDT (4/26)
Length of Visible Light 13h 46m
Length of Day
12h 59m
Full, 99% of the Moon is Illuminated
Apr 26
Full
May 2
Last Quarter
May 9
New
May 18
First Quarter
May 25
Full

Hourly Weather History & Observations

Time (EDT) Temp. Heat Index Dew Point Humidity Pressure Visibility Wind Dir Wind Speed Gust Speed Precip Events Conditions
12:53 AM 78.1 °F - 59.0 °F 52% 30.18 in 10.0 mi ENE 9.2 mph - N/A   Clear
1:53 AM 77.0 °F - 59.0 °F 54% 30.15 in 10.0 mi ENE 8.1 mph - N/A   Clear
3:53 AM 77.0 °F - 59.0 °F 54% 30.12 in 10.0 mi ENE 8.1 mph - N/A   Clear
4:53 AM 75.9 °F - 60.1 °F 58% 30.11 in 10.0 mi East 8.1 mph - N/A   Clear
5:53 AM 75.9 °F - 59.0 °F 56% 30.11 in 10.0 mi ENE 6.9 mph - N/A   Clear
6:53 AM 77.0 °F - 59.0 °F 54% 30.13 in 10.0 mi ENE 6.9 mph - N/A   Clear
7:53 AM 78.1 °F - 59.0 °F 52% 30.15 in 10.0 mi ENE 4.6 mph - N/A   Clear
8:53 AM 81.0 °F 81.9 °F 62.1 °F 52% 30.17 in 10.0 mi NE 9.2 mph - N/A   Partly Cloudy
9:53 AM 82.0 °F 82.7 °F 61.0 °F 49% 30.19 in 10.0 mi ENE 11.5 mph - N/A   Clear
10:53 AM 82.0 °F 83.4 °F 64.0 °F 54% 30.21 in 10.0 mi NNE 11.5 mph - N/A   Clear
11:53 AM 84.0 °F 84.4 °F 61.0 °F 46% 30.21 in 10.0 mi NE 13.8 mph - N/A   Clear
1:53 PM 84.9 °F 84.8 °F 60.1 °F 43% 30.19 in 10.0 mi NE 12.7 mph - N/A   Partly Cloudy
2:53 PM 84.9 °F 84.8 °F 60.1 °F 43% 30.18 in 10.0 mi NE 12.7 mph 18.4 mph N/A   Partly Cloudy
3:53 PM 84.0 °F 84.0 °F 60.1 °F 44% 30.15 in 10.0 mi East 10.4 mph 18.4 mph N/A   Clear
4:53 PM 82.9 °F 83.2 °F 60.1 °F 46% 30.15 in 10.0 mi East 10.4 mph - N/A   Clear
5:53 PM 82.9 °F 83.2 °F 60.1 °F 46% 30.15 in 10.0 mi East 10.4 mph 19.6 mph N/A   Clear
6:53 PM 81.0 °F 81.6 °F 60.1 °F 49% 30.15 in 10.0 mi East 11.5 mph 20.7 mph N/A   Clear
7:53 PM 80.1 °F 80.9 °F 60.1 °F 50% 30.14 in 10.0 mi ENE 15.0 mph - N/A   Clear
8:53 PM 79.0 °F - 60.1 °F 52% 30.16 in 10.0 mi ENE 13.8 mph - N/A   Clear
9:53 PM 79.0 °F - 60.1 °F 52% 30.17 in 10.0 mi ENE 11.5 mph 23.0 mph N/A   Clear
10:53 PM 79.0 °F - 60.1 °F 52% 30.18 in 10.0 mi ENE 12.7 mph - N/A   Partly Cloudy
11:53 PM 79.0 °F - 59.0 °F 50% 30.18 in 10.0 mi ENE 10.4 mph - N/A   Partly Cloudy